[[{"header":{"parameterUnit":"m.s-1","parameterCategory":1,"la1":30.2991,"la2":30.254,"lo1":-89.0895,"lo2":-89.0444,"dy":0.0017,"dx":0.0017,"nx":28,"ny":28,"refTime":"2023-10-26T03:00:00:Z","depth":0,"parameterNumber":2,"parameterNumberName":"U-component_of_WINDS"},"data":[0,0,0,0,0,0,0,0,0,0,0,0,0,0,0,0,0,0,0,0,0,0,0,0,0,0,0,0,0,0,0,0,0,0,0,0,0,0,0,0,0,0,0,0,0,0,0,0,0,0,0,0,0,0,0,0,0,0,-4.6762,-4.6763,0,-4.683,-4.683,-4.6831,-4.674,-4.6737,-4.6734,-4.6731,-4.6796,-4.6801,-4.6806,0,0,0,0,0,0,0,0,0,0,0,0,0,-4.6554,-4.6558,-4.6762,-4.6763,-4.6764,-4.683,-4.6831,-4.6831,-4.6741,-4.6737,-4.6733,-4.6729,-4.6795,-4.6801,-4.6806,0,0,0,0,0,0,0,0,0,0,0,0,0,-4.6635,-4.656,-4.6762,-4.6727,-4.6724,-4.6829,-4.6831,-4.6832,-4.6742,-4.6737,-4.6732,-4.6728,-4.6793,-4.68,-4.6807,-4.6949,0,0,-4.6829,-4.6832,0,0,0,0,0,0,0,0,-4.6631,-4.6643,-4.6731,-4.6729,-4.6727,-4.6772,-4.6781,-4.6871,-4.6743,-4.6735,-4.6731,-4.6725,-4.6792,-4.6799,-4.6822,-4.6952,-4.6955,-4.683,-4.6834,-4.6837,-4.6839,0,0,0,0,0,0,0,-4.6625,-4.6639,-4.6789,-4.6733,-4.673,-4.6707,-4.6713,-4.6798,-4.679,-4.6735,-4.6729,-4.6738,-4.679,-4.6815,-4.6823,-4.6956,-4.6829,-4.6836,-4.684,-4.6843,-4.7208,-4.7213,0,0,0,0,0,0,-4.6624,-4.6635,-4.6787,-4.6791,-4.6666,-4.6715,-4.6722,-4.6762,-4.6789,-4.6788,-4.6743,-4.6734,-4.6806,-4.6815,-4.6825,-4.6994,-4.6837,-4.6844,-4.6848,-4.7202,-4.7209,-4.7215,0,0,0,0,0,0,-4.662,-4.6638,-4.6784,-4.6712,-4.6728,-4.6724,-4.677,-4.6766,-4.6792,-4.6794,-4.6792,-4.677,-4.6802,-4.6815,-4.692,-4.6995,-4.6847,-4.6853,-4.7196,-4.7204,-4.7212,-4.7332,0,0,0,0,0,0,-4.6614,-4.6637,-4.6691,-4.6713,-4.6733,-4.6878,-4.6774,-4.6771,-4.6805,-4.6794,-4.682,-4.6819,-4.6799,-4.6909,-4.6927,-4.7002,-4.6859,-4.7189,-4.72,-4.7209,-4.7321,-4.7343,-4.7362,0,0,0,0,0,-4.6607,-4.6721,-4.6694,-4.6713,-4.68,-4.6882,-4.6893,-4.6869,-4.6811,-4.6865,-4.6867,-4.6818,-4.6984,-4.6921,-4.694,-4.7018,-4.7184,-4.7197,-4.7209,-4.7312,-4.7339,-4.7362,0,0,0,0,0,0,-4.6705,-4.6723,-4.6694,-4.6818,-4.685,-4.6867,-4.6934,-4.6898,-4.6945,-4.6933,-4.69,-4.6907,-4.7019,-4.7029,-4.6958,-4.7158,-4.7075,-4.7091,-4.7147,-4.7172,-4.7193,-4.7187,-4.6865,0,0,0,0,0,-4.6742,-4.6808,-4.682,-4.6928,-4.6946,-4.6938,-4.6973,-4.6952,-4.6983,-4.6995,-4.7005,-4.7036,-4.7095,-4.7134,-4.7189,-4.7323,-4.7328,-4.7387,-4.7407,-4.7424,-4.7438,-4.7511,-4.7538,-4.7255,-4.7255,-4.7254,0,0,-4.6817,-4.6835,-4.6878,-4.6949,-4.697,-4.704,-4.6949,-4.7026,-4.7077,-4.7006,-4.7106,-4.7115,-4.7148,-4.7268,-4.7322,-4.728,-4.7518,-4.7439,-4.7453,-4.7458,-4.7527,-4.7554,-4.7577,-4.7263,-4.7261,-4.726,0,0,-4.6989,-4.7009,-4.7103,-4.7128,-4.7164,-4.7158,-4.7181,-4.7205,-4.7209,-4.7309,-4.7258,-4.7319,-4.7421,-4.7447,-4.7474,-4.7661,-4.7618,-4.768,-4.7786,-4.7858,-4.788,-4.79,-4.7967,-4.7991,-4.7695,-4.7695,-4.7695,0,-4.7077,-4.718,-4.7155,-4.7237,-4.7269,-4.7212,-4.7307,-4.7332,-4.7383,-4.7407,-4.7361,-4.749,-4.7508,-4.7635,-4.7681,-4.7705,-4.773,-4.7676,-4.7879,-4.7898,-4.7916,-4.798,-4.8005,-4.7702,-4.7701,-4.7701,-4.77,0,-4.7287,-4.736,-4.7431,-4.7485,-4.7526,-4.7614,-4.7602,-4.7647,-4.7625,-4.7624,-4.7728,-4.7749,-4.7807,-4.7836,-4.7813,-4.7961,-4.7934,-4.7884,-4.7799,-4.7951,-4.801,-4.8035,-4.7713,-4.771,-4.7708,-4.7706,0,0,-4.7518,-4.7561,-4.7587,-4.7612,-4.7649,-4.7705,-4.7791,-4.785,-4.789,-4.7929,-4.8,-4.809,-4.8045,-4.8076,-4.8056,-4.812,-4.8268,-4.8062,-4.8062,-4.8099,-4.8433,-4.847,-4.8499,-4.8241,-4.8246,-4.8249,-4.843,0,-4.769,-4.784,-4.7823,-4.7966,-4.8033,-4.7982,-4.8058,-4.8089,-4.8092,-4.815,-4.8153,-4.8218,-4.8153,-4.8172,-4.8233,-4.8237,-4.8335,-4.8224,-4.8307,-4.831,-4.8299,-4.8529,-4.8568,-4.8737,-4.8453,-4.8457,-4.846,0,-4.791,-4.7959,-4.811,-4.814,-4.8168,-4.8236,-4.829,-4.8346,-4.8382,-4.838,-4.8417,-4.8387,-4.8474,-4.839,-4.8509,-4.8435,-4.8468,-4.8476,-4.8482,-4.8487,-4.8393,-4.854,-4.8791,-4.8816,-4.8496,-4.8494,-4.8491,0,-4.8063,-4.8168,-4.8272,-4.8295,-4.8332,-4.8382,-4.8399,-4.843,-4.8468,-4.8516,-4.8541,-4.8598,-4.8629,-4.8674,-4.8661,-4.8601,-4.8784,-4.8698,-4.8785,-4.8785,-4.8823,-4.8821,-4.9082,-4.8847,-4.8847,-4.8847,-4.8846,0,-4.8256,-4.835,-4.8342,-4.8406,-4.851,-4.849,-4.8594,-4.8606,-4.8635,-4.87,-4.8659,-4.8721,-4.8701,-4.8762,-4.8753,-4.8854,-4.8868,-4.8869,-4.8865,-4.8872,-4.8872,-4.8892,-4.8879,-4.8853,-4.8852,-4.885,-4.8849,0,-4.8444,-4.8442,-4.8552,-4.8581,-4.859,-4.8666,-4.869,-4.8751,-4.8753,-4.8836,-4.8855,-4.8858,-4.8928,-4.8921,-4.8999,-4.8992,-4.9118,-4.91,-4.9107,-4.9102,-4.9189,-4.9181,-4.9471,-4.9508,-4.925,-4.9253,-4.9255,0,-4.8566,-4.8638,-4.8676,-4.8718,-4.874,-4.8807,-4.8847,-4.8832,-4.8874,-4.8923,-4.8978,-4.9045,-4.9098,-4.9214,-4.9222,-4.9282,-4.9265,-4.9363,-4.9274,-4.9279,-4.9266,-4.9262,-4.9269,-4.938,-4.9383,-4.9385,-4.9387,0,-4.8783,-4.878,-4.884,-4.8901,-4.895,-4.8996,-4.9038,-4.9075,-4.9064,-4.9114,-4.9187,-4.9229,-4.9311,-4.9379,-4.9437,-4.9454,-4.942,-4.9416,-4.9439,-4.9446,-4.9446,-4.9447,-4.9154,-4.9408,-4.9406,-4.9405,-4.9403,-4.9403,-4.8941,-4.9004,-4.9041,-4.911,-4.9141,-4.9183,-4.9242,-4.9253,-4.9314,-4.9381,-4.9368,-4.9451,-4.9487,-4.9562,-4.9586,-4.965,-4.9615,-4.9648,-4.9656,-4.9664,-4.9675,-4.9438,-4.9661,-4.966,-4.966,-4.9659,-4.9659,0,-4.9156,-4.9179,-4.9243,-4.9305,-4.936,-4.9325,-4.9371,-4.9419,-4.9492,-4.953,-4.9585,-4.967,-4.9737,-4.9753,-4.9817,-4.9865,-4.9851,-4.9882,-4.9877,-4.9883,-4.9703,-4.9676,-4.9893,-4.9893,-4.9893,-4.9893,-4.9893,-4.9893,-4.9274,-4.9379,-4.9381,-4.9501,-4.9523,-4.9605,-4.9634,-4.9673,-4.9703,-4.9801,-4.9857,-4.9868,-4.9898,-4.9964,-5.0024,-5.0027,-5.0052,-5.0091,-5.0087,-4.9918,-4.9895,-4.9872,-4.9847,-5.0096,-5.0097,-5.0261,-5.0263,-5.0264]},{"header":{"parameterUnit":"m.s-1","parameterCategory":1,"la1":30.2991,"la2":30.254,"lo1":-89.0895,"lo2":-89.0444,"dy":0.0017,"dx":0.0017,"nx":28,"ny":28,"refTime":"2023-10-26T03:00:00:Z","depth":0,"parameterNumber":3,"parameterNumberName":"V-component_of_WINDS"},"data":[0,0,0,0,0,0,0,0,0,0,0,0,0,0,0,0,0,0,0,0,0,0,0,0,0,0,0,0,0,0,0,0,0,0,0,0,0,0,0,0,0,0,0,0,0,0,0,0,0,0,0,0,0,0,0,0,0,0,-0.1015,-0.1016,0,-0.1108,-0.1109,-0.111,-0.1198,-0.1199,-0.12,-0.1201,-0.1295,-0.1297,-0.1298,0,0,0,0,0,0,0,0,0,0,0,0,0,-0.0911,-0.0912,-0.1015,-0.1016,-0.1017,-0.1108,-0.1109,-0.111,-0.1197,-0.1199,-0.12,-0.1201,-0.1295,-0.1296,-0.1298,0,0,0,0,0,0,0,0,0,0,0,0,0,-0.0975,-0.0912,-0.1014,-0.1071,-0.1077,-0.1107,-0.1109,-0.111,-0.1197,-0.1199,-0.12,-0.1202,-0.1294,-0.1296,-0.1298,-0.1279,0,0,-0.1305,-0.1306,0,0,0,0,0,0,0,0,-0.0971,-0.0978,-0.1062,-0.1068,-0.1074,-0.1143,-0.1107,-0.1167,-0.1197,-0.1152,-0.1201,-0.1203,-0.1243,-0.125,-0.1263,-0.1284,-0.1288,-0.1305,-0.1307,-0.1308,-0.1308,0,0,0,0,0,0,0,-0.0966,-0.0975,-0.1051,-0.1063,-0.1071,-0.1092,-0.1103,-0.1119,-0.1187,-0.1156,-0.1162,-0.1172,-0.1247,-0.1261,-0.1266,-0.1289,-0.1305,-0.1307,-0.1309,-0.131,-0.1296,-0.1294,0,0,0,0,0,0,-0.0953,-0.0971,-0.1049,-0.1054,-0.1026,-0.1092,-0.1105,-0.1119,-0.1187,-0.1199,-0.1171,-0.1176,-0.1256,-0.1264,-0.127,-0.125,-0.1308,-0.131,-0.1311,-0.1297,-0.1295,-0.1294,0,0,0,0,0,0,-0.0951,-0.096,-0.1045,-0.1014,-0.1027,-0.1092,-0.1108,-0.112,-0.1134,-0.1198,-0.1211,-0.1173,-0.1258,-0.1267,-0.1276,-0.1254,-0.1311,-0.1313,-0.1299,-0.1297,-0.1294,-0.1211,0,0,0,0,0,0,-0.0948,-0.0958,-0.0952,-0.1014,-0.1028,-0.1049,-0.1107,-0.1121,-0.1138,-0.1146,-0.1204,-0.1215,-0.126,-0.1272,-0.1278,-0.1259,-0.1315,-0.1302,-0.1298,-0.1295,-0.1215,-0.1205,-0.1197,0,0,0,0,0,-0.0944,-0.0925,-0.0951,-0.096,-0.1022,-0.1048,-0.1056,-0.1109,-0.1136,-0.113,-0.1171,-0.1213,-0.1256,-0.1272,-0.128,-0.126,-0.1303,-0.1299,-0.1295,-0.122,-0.1207,-0.1197,0,0,0,0,0,0,-0.0859,-0.0934,-0.0964,-0.0965,-0.0999,-0.1063,-0.1057,-0.1095,-0.1122,-0.1128,-0.1192,-0.1204,-0.1205,-0.1235,-0.1251,-0.1244,-0.1285,-0.1283,-0.1225,-0.1214,-0.1205,-0.1197,-0.1316,0,0,0,0,0,-0.0841,-0.0856,-0.0921,-0.0915,-0.0931,-0.099,-0.1004,-0.1042,-0.108,-0.1095,-0.1136,-0.1171,-0.1193,-0.1205,-0.1229,-0.1221,-0.1233,-0.1211,-0.1202,-0.1194,-0.119,-0.1186,-0.1176,-0.1281,-0.1281,-0.1281,0,0,-0.0803,-0.0846,-0.0852,-0.09,-0.0931,-0.0944,-0.1002,-0.1015,-0.1025,-0.1097,-0.1107,-0.1138,-0.1182,-0.1181,-0.1183,-0.1205,-0.1164,-0.1189,-0.1182,-0.1183,-0.1181,-0.1171,-0.1162,-0.1278,-0.1279,-0.1279,0,0,-0.074,-0.0775,-0.0773,-0.0803,-0.0849,-0.0889,-0.0888,-0.0945,-0.0969,-0.098,-0.1034,-0.1047,-0.1083,-0.1111,-0.113,-0.1076,-0.1114,-0.1082,-0.1032,-0.1027,-0.1019,-0.1012,-0.099,-0.0982,-0.1078,-0.1078,-0.1078,0,-0.0687,-0.071,-0.0767,-0.0776,-0.0794,-0.086,-0.0857,-0.0884,-0.0935,-0.0946,-0.097,-0.1015,-0.1049,-0.1055,-0.1042,-0.1056,-0.1056,-0.1074,-0.1015,-0.1009,-0.1003,-0.0983,-0.0975,-0.1074,-0.1074,-0.1075,-0.1075,0,-0.0641,-0.0656,-0.0649,-0.0696,-0.0714,-0.0717,-0.0774,-0.0785,-0.0821,-0.0857,-0.0867,-0.091,-0.0942,-0.0947,-0.0983,-0.0957,-0.0969,-0.1004,-0.1046,-0.0988,-0.097,-0.0963,-0.1067,-0.1069,-0.107,-0.1071,0,0,-0.0527,-0.0605,-0.0602,-0.0623,-0.0678,-0.069,-0.0696,-0.0727,-0.0735,-0.0768,-0.0772,-0.0801,-0.0832,-0.0854,-0.0893,-0.0889,-0.084,-0.0923,-0.0925,-0.0904,-0.0812,-0.0784,-0.0774,-0.0867,-0.0866,-0.0865,-0.0808,0,-0.0472,-0.0486,-0.0537,-0.0535,-0.0548,-0.061,-0.0614,-0.0648,-0.0682,-0.0698,-0.0736,-0.0754,-0.0795,-0.0808,-0.0807,-0.0846,-0.0822,-0.0851,-0.087,-0.087,-0.0855,-0.0766,-0.0737,-0.0681,-0.0801,-0.08,-0.08,0,-0.0409,-0.0437,-0.0436,-0.0489,-0.0497,-0.05,-0.0531,-0.0546,-0.0585,-0.061,-0.0633,-0.0676,-0.0684,-0.0725,-0.0735,-0.0754,-0.0765,-0.0785,-0.0784,-0.0786,-0.083,-0.0763,-0.0665,-0.0655,-0.079,-0.079,-0.0791,0,-0.0323,-0.0361,-0.0365,-0.0381,-0.0444,-0.0444,-0.047,-0.0511,-0.0526,-0.0554,-0.0564,-0.0592,-0.0607,-0.0627,-0.0677,-0.0702,-0.0681,-0.0726,-0.07,-0.0698,-0.0691,-0.069,-0.059,-0.0702,-0.0702,-0.0702,-0.0702,0,-0.0255,-0.0251,-0.0326,-0.0328,-0.0325,-0.0384,-0.0379,-0.0412,-0.0447,-0.0455,-0.0511,-0.0518,-0.0584,-0.0597,-0.0636,-0.0637,-0.0645,-0.0664,-0.0674,-0.0657,-0.0654,-0.0664,-0.0668,-0.07,-0.07,-0.0701,-0.0701,0,-0.0158,-0.0208,-0.0216,-0.0274,-0.0289,-0.0284,-0.0333,-0.0337,-0.0374,-0.0384,-0.039,-0.0448,-0.0467,-0.0518,-0.0551,-0.0577,-0.0566,-0.0587,-0.0553,-0.0559,-0.0529,-0.053,-0.0429,-0.0418,-0.0538,-0.0537,-0.0536,0,-0.0109,-0.0108,-0.0166,-0.0175,-0.0199,-0.0214,-0.0229,-0.0286,-0.03,-0.0343,-0.0341,-0.0364,-0.0386,-0.0413,-0.0457,-0.0482,-0.0502,-0.0465,-0.0506,-0.0488,-0.0498,-0.0496,-0.0495,-0.0455,-0.0453,-0.0452,-0.0451,0,-0.0018,-0.0042,-0.0062,-0.009,-0.0107,-0.0131,-0.016,-0.0164,-0.0229,-0.024,-0.026,-0.0277,-0.0309,-0.0331,-0.0362,-0.0389,-0.0429,-0.0438,-0.0433,-0.0415,-0.0394,-0.0402,-0.0526,-0.044,-0.0441,-0.0441,-0.0442,-0.0443,0.0058,0.0057,0.0017,-0.0002,-0.0029,-0.0054,-0.0059,-0.0097,-0.0114,-0.0145,-0.0178,-0.0193,-0.0231,-0.0277,-0.03,-0.0313,-0.0335,-0.0328,-0.0326,-0.0322,-0.0314,-0.0394,-0.0319,-0.0319,-0.032,-0.032,-0.032,0,0.0149,0.012,0.0103,0.0066,0.0051,0.0013,-0.002,-0.0029,-0.0042,-0.0074,-0.0093,-0.0115,-0.0136,-0.0182,-0.0207,-0.0207,-0.0227,-0.0212,-0.0211,-0.0216,-0.0294,-0.0295,-0.0196,-0.0196,-0.0196,-0.0196,-0.0196,-0.0196,0.0195,0.0193,0.0164,0.0149,0.0119,0.0104,0.0089,0.0067,0.0042,0.002,0.0003,-0.0027,-0.0064,-0.0092,-0.0112,-0.0125,-0.013,-0.0109,-0.0127,-0.0199,-0.0211,-0.0222,-0.0223,-0.011,-0.011,-0.0048,-0.0047,-0.0047]}]]